Weather History for Altoona, PA

Change the Weather History Date:

Monday, July 8, 2013

  Actual Average Record
Temperature  
Mean Temperature 73 °F 71 °F  
Max Temperature 81 °F 81 °F 98 °F (1988)
Min Temperature 64 °F 60 °F 46 °F (2000)
Degree Days  
Heating Degree Days 0 0  
Month to date heating degree days 0 1  
Since 1 June heating degree days 17 59  
Since 1 July heating degree days 0 1  
Cooling Degree Days 8 6  
Month to date cooling degree days 85 47  
Year to date cooling degree days 289 189  
Since 1 June cooling degree days 222 156  
Growing Degree Days 22 (Base 50)    
Moisture  
Dew Point 64 °F    
Average Humidity 74    
Maximum Humidity 93    
Minimum Humidity 54    
Precipitation  
Precipitation 0.00 in 0.11 in 0.93 in (1980)
Month to date precipitation 0.59 0.85  
Year to date precipitation 5.31 18.51  
Sea Level Pressure  
Sea Level Pressure 30.11 in    
Wind  
Wind Speed 5 mph (WSW)    
Max Wind Speed 14 mph    
Max Gust Speed 18 mph    
Visibility 9 miles    
Events Thunderstorm    
T = Trace of Precipitation, MM = Missing Value Source: NWS Daily Summary

Daily Weather History Graph

Daily Weather History Graph

Search for Another Location

Airport:

Trip Planner

Search our weather history database for the weather conditions in past years. The results will help you decide how hot, cold, wet, or windy it might be!

Date:

Astronomy

Jul. 08, 2013 Rise Set
Actual Time 5:51 AM EDT 8:45 PM EDT
Civil Twilight 5:18 AM EDT 9:17 PM EDT
Nautical Twilight 4:37 AM EDT 9:58 PM EDT
Astronomical Twilight 3:50 AM EDT 10:45 PM EDT
Moon 6:18 AM EDT (7/8) 8:46 PM EDT (7/8)
Length of Visible Light 15h 58m
Length of Day
14h 53m
New Moon, 0% of the Moon is Illuminated
Jul 8
New Moon
Jul 15
First Quarter
Jul 22
Full
Jul 29
Last Quarter
Aug 6
New

Hourly Weather History & Observations

Time (EDT) Temp. Heat Index Dew Point Humidity Pressure Visibility Wind Dir Wind Speed Gust Speed Precip Events Conditions
12:53 AM 66.9 °F - 64.9 °F 93% 30.08 in 8.0 mi WSW 4.6 mph - N/A   Overcast
1:53 AM 66.9 °F - 64.0 °F 90% 30.08 in 9.0 mi WSW 4.6 mph - N/A   Scattered Clouds
2:53 AM 66.9 °F - 64.0 °F 90% 30.09 in 10.0 mi WSW 5.8 mph - N/A   Partly Cloudy
3:53 AM 66.0 °F - 63.0 °F 90% 30.11 in 7.0 mi Calm Calm - N/A   Partly Cloudy
4:53 AM 64.0 °F - 62.1 °F 93% 30.10 in 5.0 mi SSW 3.5 mph - N/A   Clear
5:53 AM 66.0 °F - 63.0 °F 90% 30.11 in 5.0 mi South 5.8 mph - N/A   Scattered Clouds
6:02 AM 66.2 °F - 62.6 °F 88% 30.13 in 5.0 mi South 3.5 mph - N/A   Mostly Cloudy
6:53 AM 66.9 °F - 64.0 °F 90% 30.11 in 5.0 mi Calm Calm - N/A   Partly Cloudy
7:53 AM 70.0 °F - 64.9 °F 84% 30.11 in 9.0 mi WSW 5.8 mph - N/A   Clear
8:53 AM 72.0 °F - 64.9 °F 78% 30.12 in 10.0 mi Calm Calm - N/A   Mostly Cloudy
9:39 AM 71.6 °F - 64.4 °F 78% 30.16 in 10.0 mi WSW 4.6 mph - N/A   Mostly Cloudy
9:53 AM 71.1 °F - 64.0 °F 78% 30.14 in 10.0 mi WSW 4.6 mph - N/A   Overcast
10:46 AM 71.6 °F - 64.4 °F 78% 30.16 in 10.0 mi West 8.1 mph - N/A   Mostly Cloudy
10:53 AM 73.0 °F - 64.9 °F 76% 30.14 in 10.0 mi West 8.1 mph - N/A   Mostly Cloudy
11:53 AM 73.9 °F - 64.0 °F 71% 30.13 in 10.0 mi Variable 3.5 mph - N/A   Scattered Clouds
12:53 PM 77.0 °F - 66.0 °F 69% 30.12 in 10.0 mi Variable 5.8 mph - N/A   Clear
1:53 PM 78.1 °F - 63.0 °F 60% 30.11 in 10.0 mi WNW 9.2 mph - N/A   Mostly Cloudy
2:53 PM 80.1 °F 81.5 °F 63.0 °F 56% 30.09 in 10.0 mi West 8.1 mph 16.1 mph N/A   Partly Cloudy
3:53 PM 79.0 °F - 62.1 °F 56% 30.07 in 10.0 mi WNW 8.1 mph - N/A   Mostly Cloudy
4:53 PM 81.0 °F 82.7 °F 64.9 °F 58% 30.06 in 10.0 mi West 9.2 mph - N/A   Partly Cloudy
5:53 PM 79.0 °F - 64.9 °F 62% 30.07 in 10.0 mi West 5.8 mph - N/A   Mostly Cloudy
6:44 PM 78.8 °F - 64.4 °F 61% 30.10 in 10.0 mi WSW 8.1 mph - N/A Thunderstorm Overcast
6:53 PM 77.0 °F - 64.9 °F 66% 30.07 in 10.0 mi West 5.8 mph - N/A Thunderstorm Mostly Cloudy
7:06 PM 75.2 °F - 64.4 °F 69% 30.10 in 10.0 mi West 5.8 mph - N/A   Mostly Cloudy
7:53 PM 73.9 °F - 64.9 °F 73% 30.09 in 10.0 mi West 3.5 mph - N/A   Mostly Cloudy
8:53 PM 73.0 °F - 64.0 °F 73% 30.10 in 10.0 mi WSW 3.5 mph - N/A   Mostly Cloudy
9:53 PM 71.1 °F - 64.0 °F 78% 30.11 in 10.0 mi Calm Calm - N/A   Clear
10:53 PM 69.1 °F - 64.9 °F 87% 30.12 in 8.0 mi West 3.5 mph - N/A   Clear
11:53 PM 68.0 °F - 64.0 °F 87% 30.12 in 8.0 mi West 3.5 mph - N/A   Clear